SCP
0 0 0 0 0 0 0 0 0 0 0 0 0 0 0 0 0 0 0 0 0 0 0 0 0 0 0 0 0 0 0 0 0 0 0 0 0 0 0 0 0 0 0
0 0 0 0 0 0 0 0 0 0 0 0 0 0 0 0 0 0 0 0 0 0 0 0 0 0 0 0 0 0 0 0 0 0 0 0 0 0 0 0 0 0 0
0 0 0 0 0 0 0 0 0 0 0 0 0 0 0 0 0 0 0 0 0 0 0 0 0 0 0 0 0 0 0 0 0 0 0 0 0 0 0 0 0 0 0
0 0 0 0 0 0 0 0 0 0 0 0 0 0 0 0 0 0 0 0 0 0 0 0 0 0 0 0 0 0 0 0 0 0 0 0 0 0 0 0 0 0 0
0 0 0 0 0 0 0 0 0 0 0 0 0 0 0 0 0 0 0 0 0 0 0 0 0 0 0 0 0 0 0 0 0 0 0 0 0 0 0 0 0 0 0
0 0 0 0 0 0 0 0 0 0 0 0 0 0 0 0 0 0 0 0 0 0 0 0 0 0 0 0 0 0 0 0 0 0 0 0 0 0 0 0 0 0 0
0 0 0 0 0 0 0 0 0 0 0 0 0 0 0 0 0 0 0 0 0 0 0 0 0 0 0 0 0 0 0 0 0 0 0 0 0 0 0 0 0 0 0
0 0 0 0 0 0 0 0 0 0 0 0 0 0 0 0 0 0 0 0 0 0 0 0 0 0 0 0 0 0 0 0 0 0 0 0 0 0 0 0 0 0 0
0 0 0 0 0 0 0 0 0 0 0 0 0 0 0 0 0 0 0 0 0 0 0 0 0 0 0 0 0 0 0 0 0 0 0 0 0 0 0 0 0 0 0
0 0 0 0 0 0 0 0 0 0 0 0 0 0 0 0 0 0 0 0 0 0 0 0 0 0 0 0 0 0 0 0 0 0 0 0 0 0 0 0 0 0 0
0 0 0 0 0 0 0 0 0 0 0 0 0 0 0 0 0 0 0 0 0 0 0 0 0 0 0 0 0 0 0 0 0 0 0 0 0 0 0 0 0 0 0
0 0 0 0 0 0 0 0 0 0 0 0 0 0 0 0 0 0 0 0 0 0 0 0 0 0 0 0 0 0 0 0 0 0 0 0 0 0 0 0 0 0 0
0 0 0 0 0 0 0 0 0 0 0 0 0 0 0 0 0 0 0 0 0 0 0 0 0 0 0 0 0 0 0 0 0 0 0 0 0 0 0 0 0 0 0
0 0 0 0 0 0 0 0 0 0 0 0 0 0 0 0 0 0 0 0 0 0 0 0 0 0 0 0 0 0 0 0 0 0 0 0 0 0 0 0 0 0 0
0 0 0 0 0 0 0 0 0 0 0 0 0 0 0 0 0 0 0 0 0 0 0 0 0 0 0 0 0 0 0 0 0 0 0 0 0 0 0 0 0 0 0
0 0 0 0 0 0 0 0 0 0 0 0 0 0 0 0 0 0 0 0 0 0 0 0 0 0 0 0 0 0 0 0 0 0 0 0 0 0 0 0 0 0 0
0 0 0 0 0 0 0 0 0 0 0 0 0 0 0 0 0 0 0 0 0 0 0 0 0 0 0 0 0 0 0 0 0 0 0 0 0 0 0 0 0 0 0
0 0 0 0 0 0 0 0 0 0 0 0 0 0 0 0 0 0 0 0 0 0 0 0 0 0 0 0 0 0 0 0 0 0 0 0 0 0 0 0 0 0 0
0 0 0 0 0 0 0 0 0 0 0 0 0 0 0 0 0 0 0 0 0 0 0 0 0 0 0 0 0 0 0 0 0 0 0 0 0 0 0 0 0 0 0
0 0 0 0 0 0 0 0 0 0 0 0 0 0 0 0 0 0 0 0 0 0 0 0 0 0 0 0 0 0 0 0 0 0 0 0 0 0 0 0 0 0 0
0 0 0 0 0 0 0 0 0 0 0 0 0 0 0 0 0 0 0 0 0 0 0 0 0 0 0 0 0 0 0 0 0 0 0 0 0 0 0 0 0 0 0
0 0 0 0 0 0 0 0 0 0 0 0 0 0 0 0 0 0 0 0 0 0 0 0 0 0 0 0 0 0 0 0 0 0 0 0 0 0 0 0 0 0 0
0 0 0 0 0 0 0 0 0 0 0 0 0 0 0 0 0 0 0 0 0 0 0 0 0 0 0 0 0 0 0 0 0 0 0 0 0 0 0 0 0 0 0
0 0 0 0 0 0 0 0 0 0 0 0 0 0 0 0 0 0 0 0 0 0 0 0 0 0 0 0 0 0 0 0 0 0 0 0 0 0 0 0 0 0 0
0 0 0 0 0 0 0 0 0 0 0 0 0 0 0 0 0 0 0 0 0 0 0 0 0 0 0 0 0 0 0 0 0 0 0 0 0 0 0 0 0 0 0
0 0 0 0 0 0 0 0 0 0 0 0 0 0 0 0 0 0 0 0 0 0 0 0 0 0 0 0 0 0 0 0 0 0 0 0 0 0 0 0 0 0 0
Wind_Speed
10 7 8 9 9 9 10 12 12 12 10 8 9 9 10 8 7 7 9 11 11 12 11 8 8 8 8 9 9 5 5 3 3 2 2 3 4 5 6 6 5 7 7
8 7 7 7 10 11 12 13 14 12 12 11 8 5 5 5 6 6 7 10 11 11 10 11 9 9 8 9 9 7 5 4 6 5 3 3 4 8 10 7 8 9 6
10 7 6 7 7 10 12 12 14 13 12 10 5 3 3 2 4 6 8 9 10 11 11 12 10 10 10 10 12 12 11 8 8 6 6 5 8 4 3 8 9 9 8
6 6 5 5 6 8 7 9 9 10 9 9 8 10 9 10 8 6 6 7 9 10 11 11 12 11 10 11 11 13 10 8 8 7 7 5 2 3 4 3 6 8 11
4 3 3 3 3 2 3 5 6 7 7 8 10 10 10 9 4 3 5 6 6 8 10 10 10 11 10 11 10 11 12 10 10 8 6 7 5 3 4 7 4 4 9
5 4 4 4 5 4 2 1 3 4 5 7 8 9 10 8 5 5 5 5 4 5 8 8 9 10 9 10 11 11 13 12 11 10 7 6 6 8 9 12 8 7 6
4 5 7 7 7 6 5 3 3 2 2 4 6 7 7 7 8 6 6 5 4 5 7 8 9 8 9 9 9 10 12 13 12 12 11 10 10 5 5 8 7 6 4
4 5 6 6 6 6 6 5 4 2 1 1 2 2 3 3 4 5 5 6 5 6 6 7 8 8 8 8 8 9 10 10 13 14 13 10 10 8 8 6 5 7 6
5 5 6 6 6 7 6 5 4 4 2 1 0 1 2 3 4 4 4 4 4 4 6 6 7 8 8 9 9 9 10 10 12 12 13 12 10 9 9 8 8 8 11
5 6 6 6 6 6 5 6 5 4 3 2 1 1 1 2 3 3 4 5 5 5 5 6 7 8 8 8 9 10 9 11 11 9 12 13 10 9 8 9 9 10 11
4 5 5 5 6 6 7 7 7 6 6 5 3 3 3 3 3 3 4 4 4 5 6 6 7 8 8 8 9 11 10 11 11 10 12 13 11 10 9 9 9 10 11
4 5 5 6 7 8 7 7 7 7 6 5 4 4 4 4 4 4 4 4 5 5 6 6 6 7 8 8 10 11 11 12 13 12 11 12 9 12 10 9 10 10 11
5 5 6 7 7 7 7 8 8 7 7 6 6 5 6 6 6 6 5 5 5 5 5 5 6 7 8 8 9 11 11 11 11 10 11 11 9 11 9 10 10 9 9
5 5 6 6 6 6 7 7 7 7 7 7 6 6 7 6 6 6 6 6 5 6 6 5 6 7 7 8 8 9 10 10 10 9 9 9 9 10 9 9 10 9 9
5 5 5 5 5 6 6 6 6 7 7 7 7 7 6 6 6 7 7 7 6 6 6 6 6 6 6 6 7 8 9 9 9 8 8 8 9 10 9 7 7 7 8
4 4 4 4 5 5 5 6 6 6 6 6 6 6 6 6 6 7 7 7 7 6 6 6 7 7 6 9 11 9 8 8 8 8 7 7 7 9 11 13 12 11 9
4 4 3 3 4 4 4 5 5 5 5 5 5 5 6 7 7 7 7 7 7 7 7 7 6 7 9 12 11 10 8 8 7 7 6 5 5 6 6 9 11 11 13
3 2 2 2 3 3 4 4 4 5 5 6 6 6 7 8 8 7 7 7 6 6 7 7 7 7 8 11 11 9 7 6 6 6 6 6 5 4 5 5 6 6 6
3 1 1 2 3 4 5 5 6 6 6 7 7 8 8 9 9 9 8 7 7 7 6 6 6 7 8 9 10 8 4 4 5 4 4 4 4 6 7 6 5 5 4
2 1 2 2 3 4 4 5 6 6 7 7 8 8 7 8 9 9 9 7 6 7 7 6 5 5 6 9 9 7 3 3 3 2 2 3 4 5 6 3 3 4 3
1 1 2 2 3 3 4 5 6 6 6 6 7 8 7 7 8 8 6 7 6 6 6 6 5 4 5 8 8 7 3 3 2 2 1 2 3 3 3 2 1 2 1
1 1 2 3 4 3 4 5 6 6 6 7 8 8 8 7 6 7 7 6 6 6 6 5 6 4 4 5 6 6 5 3 1 2 1 1 2 2 3 2 1 1 1
1 2 3 5 5 4 3 6 7 7 7 8 9 9 9 7 7 7 7 6 5 4 5 4 5 4 3 4 6 5 3 1 0 0 1 1 3 3 3 4 5 3 2
2 2 3 5 6 5 4 5 7 6 6 8 9 8 8 8 7 5 5 5 5 4 4 4 4 4 4 3 2 2 1 1 1 1 2 4 6 5 5 4 4 3 3
2 2 3 6 7 6 6 6 6 6 7 8 8 8 8 8 7 6 5 6 5 5 5 4 4 4 4 4 3 1 0 1 2 3 3 3 3 3 4 4 4 4 3
3 4 5 6 8 8 8 7 5 5 7 9 8 6 6 6 6 6 5 6 6 6 6 5 4 3 4 4 2 1 3 4 6 4 3 3 3 4 4 4 4 4 4
Wind_Direction
257 250 231 218 212 211 208 207 206 203 192 195 203 210 217 213 211 211 205 202 201 199 203 204 196 190 196 200 195 178 178 179 145 138 254 268 242 241 240 234 236 239 237
278 263 243 222 213 213 213 212 212 204 200 205 201 201 202 206 210 207 209 208 205 203 204 206 203 199 202 200 192 180 179 181 177 177 173 260 276 241 232 223 229 235 232
267 272 257 236 221 218 214 213 212 209 205 199 176 155 157 173 199 209 215 213 210 207 206 208 207 203 203 206 202 196 190 199 200 197 182 192 235 247 249 230 230 230 228
274 275 274 262 236 231 220 215 212 208 201 188 187 192 203 217 218 211 211 206 208 213 211 210 210 209 208 211 206 204 204 198 203 210 228 230 200 206 274 254 237 233 234
310 309 321 308 304 273 225 212 204 201 190 188 196 202 216 226 215 192 205 209 212 218 218 216 215 216 215 216 209 205 208 210 211 202 202 220 229 224 245 269 257 243 239
1 13 16 27 24 26 40 124 173 186 180 185 194 204 216 219 211 209 212 215 219 224 225 223 225 224 221 219 215 211 212 215 219 217 204 193 200 209 219 246 250 245 238
10 22 26 27 27 31 36 55 101 130 160 181 197 208 217 215 218 219 217 217 221 226 227 224 229 230 228 223 217 216 217 217 218 222 222 221 225 210 211 239 257 258 246
35 39 33 34 31 36 39 46 62 68 91 160 209 222 225 223 232 229 224 223 225 227 226 225 232 235 233 229 223 224 224 220 222 226 227 229 229 221 216 218 235 265 260
46 45 38 38 36 37 36 40 52 49 42 33 349 270 251 245 252 254 244 242 242 240 232 230 234 237 235 233 230 236 232 225 225 228 228 231 233 227 225 220 217 240 270
55 50 43 38 35 35 36 42 48 47 35 33 21 332 289 267 263 262 257 256 255 248 242 239 239 241 240 237 237 244 241 237 234 228 229 231 232 231 226 224 224 226 246
66 53 45 38 39 39 36 36 33 30 23 16 7 358 339 317 295 278 273 269 263 252 245 242 241 242 245 242 243 246 244 245 245 236 233 235 229 231 230 227 228 229 232
67 56 48 41 39 36 32 33 29 26 13 5 6 2 352 344 332 314 302 289 277 265 254 249 246 246 246 244 244 250 247 247 249 245 241 241 233 233 233 231 232 233 230
68 55 48 42 37 32 28 26 22 14 5 6 8 6 2 354 340 327 319 311 298 289 276 260 254 253 250 248 247 252 254 252 252 250 246 245 236 239 236 234 238 238 237
76 64 53 42 33 29 25 19 14 10 4 4 7 4 356 346 334 329 326 322 314 303 295 279 267 263 259 254 253 253 257 258 257 253 249 246 239 243 241 242 243 244 246
79 68 60 45 33 28 21 13 7 6 1 2 4 356 345 339 337 336 331 325 320 310 302 296 288 278 268 261 255 255 257 260 262 258 253 250 248 248 247 248 252 249 254
92 75 62 49 37 28 14 7 2 356 353 357 351 341 340 340 340 334 328 324 320 316 313 305 297 292 282 278 268 260 258 256 258 262 259 255 253 256 259 260 259 256 257
106 80 56 39 28 19 6 357 342 338 348 350 344 343 341 338 334 329 327 326 322 318 313 306 301 295 293 294 286 272 263 260 258 257 259 257 250 251 256 265 269 267 264
111 83 47 24 16 2 358 344 340 349 352 352 349 347 343 336 330 328 325 322 317 313 308 305 300 297 298 301 295 286 268 263 262 256 252 255 261 252 258 262 266 268 271
122 109 49 12 355 356 353 347 348 350 352 349 343 339 336 329 327 325 321 318 314 310 305 301 302 299 302 309 304 298 278 271 271 265 258 257 263 271 273 268 270 280 285
101 72 17 4 354 347 350 348 340 340 337 332 326 323 321 318 314 311 310 309 306 303 305 304 304 301 300 308 308 302 277 277 280 279 274 269 272 281 284 266 264 278 291
84 35 5 341 327 332 342 331 323 318 315 317 314 312 310 305 299 300 301 303 303 302 302 301 302 302 301 306 307 301 274 256 270 275 285 293 308 310 316 300 264 269 291
359 352 332 316 316 329 333 315 307 308 316 315 310 307 304 301 299 297 299 297 295 297 297 299 301 298 299 299 303 304 290 264 245 266 280 299 355 18 23 22 35 55 76
299 318 313 308 311 317 317 302 303 317 318 312 305 302 301 295 289 287 291 294 287 285 290 292 294 300 302 302 309 313 310 280 182 174 121 70 58 56 44 51 63 61 67
294 308 310 302 302 311 307 291 301 311 307 301 300 299 297 295 290 280 275 277 278 277 278 280 285 292 297 295 291 295 338 67 82 70 61 66 66 64 59 53 50 47 57
321 320 302 295 296 307 303 299 301 305 299 294 291 290 285 284 286 279 266 266 257 249 262 264 261 274 287 290 291 256 178 163 129 98 62 47 45 45 44 44 41 41 46
336 322 312 305 305 307 301 300 296 292 291 294 292 288 286 282 277 280 287 275 267 274 272 274 272 270 279 299 327 59 95 105 113 90 69 62 56 52 46 47 44 41 37